Simultaneous Nadir Overpasses (SNOs) Predictions

Prediction of SNOs between GOES-16 and TERRA Satellite Orbit:

Table of predicted SNOs for the next 14.0 days since TLE Epoch: 8/22/2020
Index Date Time (GOES-16) GOES-16 Lat,Lon TERRA Lat,Lon Distance(km) Time Diff (sec)
1 08/23/2020 15:17:51 0.01, -75.20 -0.62, -72.29 331.46 80
2 08/24/2020 03:41:55 -0.01, -75.19 -0.50, -77.48 259.58 80
3 08/26/2020 03:27:04 -0.01, -75.21 0.15, -74.52 78.02 80
4 08/28/2020 03:14:52 -0.01, -75.22 0.74, -71.56 416.02 80
5 08/28/2020 15:38:48 0.02, -75.24 0.33, -76.72 168.41 80
6 08/30/2020 15:23:57 0.02, -75.26 -0.32, -73.77 170.44 80
7 08/31/2020 03:48:00 -0.03, -75.26 -0.79, -78.96 420.03 80
8 09/02/2020 03:35:48 -0.03, -75.29 -0.19, -76.00 80.12 80
9 09/04/2020 03:20:58 -0.02, -75.33 0.48, -73.05 260.59 80
10 09/04/2020 15:44:52 0.03, -75.36 0.65, -78.19 323.14 80
